Great Smoky Mtns National Park, NC

12:27 AM EDT on November 01, 2014 (GMT -0400)
Asheville Middle School | Change Station
CLOSE
Current Station
Personal Weather Station
Location: Asheville, NC
Elevation: 2139 ft
Nearby Weather Stations

Elev 2139 ft 35.59 °N, 82.56 °W | Updated 2 minutes ago

Overcast
Overcast
32.7 °F
Feels Like 33 °F
N
1.7
Wind Variable Wind from NW

Today
High -- | Low -- °F
--% Chance of Precip.
Yesterday
High -- | Low -- °F
Precip. -- in
7:52 AM 6:34 PM
Waxing Gibbous, 62% visible
Pressure 29.82 in
Visibility 10.0 miles
Clouds Mostly Cloudy 9500 ft
Windchill 33 °F
Dew Point 28 °F
Humidity 84%
Rainfall 0.00 in
Snow Depth Not available.
UV 0 out of 12
Pollen 1.30 out of 12
Air Quality Not available.
Flu Activity Not available.
METAR KAVL 010354Z AUTO 35012G21KT 10SM BKN095 04/M02 A2983 RMK AO2 SLP096 T00391022

More Conditions Fewer Conditions

Pressure 29.82 in
Visibility 10.0 miles
Clouds Mostly Cloudy 9500 ft
Windchill 33 °F
Dew Point 28 °F
Humidity 84%
Rainfall 0.00 in
Snow Depth Not available.
UV 0 out of 12
Pollen 1.30 out of 12
Air Quality Not available.
Flu Activity Not available.
METAR KAVL 010354Z AUTO 35012G21KT 10SM BKN095 04/M02 A2983 RMK AO2 SLP096 T00391022

More Conditions Fewer Conditions

10-Day Weather Forecast

Almanac

Astronomy

Nov. 01, 2014 Rise Set
Actual Time
Civil Twilight
Nautical Twilight
Astronomical Twilight
Moon
Length of Visible Light
Length of Day
Tomorrow will be .
, % of the Moon is Illuminated

Today's Extremes

State Highs State Lows

Community

WunderPhotos

Upload Photos

1,766,853 photos uploaded!

WunderBlogs® & News

Nearby

Air Quality

  Air Quality AQ Index Pollutant
Not available.

Snow Depth

Station Depth Elevation

Earthquake Activity

City Distance Mag. Time & Date
Minimum magnitude displayed is 2.5.

Coastal Water Temperatures

Place Temperature

Nearby Weather Stations